TimeHST,TemperatureF,Dew PointF,Humidity,Sea Level PressureIn,VisibilityMPH,Wind Direction,Wind SpeedMPH,Gust SpeedMPH,PrecipitationIn,Events,Conditions,WindDirDegrees,DateUTC
12:54 AM,70.0,62.1,76,30.14,10.0,NE,6.9,-,N/A,,Partly Cloudy,50,2013-01-22 10:54:00
1:54 AM,70.0,61.0,73,30.12,10.0,NE,11.5,-,N/A,,Clear,50,2013-01-22 11:54:00
2:54 AM,71.1,62.1,73,30.11,10.0,NE,11.5,-,N/A,,Clear,50,2013-01-22 12:54:00
3:54 AM,70.0,61.0,73,30.10,10.0,NE,12.7,19.6,N/A,,Clear,50,2013-01-22 13:54:00
4:54 AM,70.0,61.0,73,30.11,10.0,NE,12.7,-,N/A,,Clear,50,2013-01-22 14:54:00
5:54 AM,70.0,60.1,71,30.12,10.0,NE,12.7,-,N/A,,Clear,50,2013-01-22 15:54:00
6:54 AM,68.0,57.9,70,30.13,10.0,NE,6.9,-,N/A,,Clear,50,2013-01-22 16:54:00
7:54 AM,77.0,59.0,54,30.14,10.0,NE,11.5,-,N/A,,Partly Cloudy,40,2013-01-22 17:54:00
8:54 AM,75.0,64.0,69,30.15,10.0,NE,17.3,25.3,N/A,,Scattered Clouds,40,2013-01-22 18:54:00
9:54 AM,75.9,64.9,69,30.16,10.0,NE,21.9,27.6,N/A,,Partly Cloudy,40,2013-01-22 19:54:00
10:54 AM,78.1,64.0,62,30.15,10.0,NE,21.9,31.1,N/A,,Partly Cloudy,50,2013-01-22 20:54:00
11:54 AM,78.1,63.0,60,30.13,10.0,NE,24.2,31.1,N/A,,Partly Cloudy,40,2013-01-22 21:54:00
12:54 PM,79.0,62.1,56,30.09,10.0,NE,25.3,31.1,N/A,,Partly Cloudy,40,2013-01-22 22:54:00
1:54 PM,79.0,61.0,54,30.06,10.0,NE,28.8,33.4,N/A,,Partly Cloudy,40,2013-01-22 23:54:00
2:54 PM,78.1,61.0,56,30.06,10.0,NE,23.0,31.1,N/A,,Partly Cloudy,40,2013-01-23 00:54:00
3:54 PM,77.0,62.1,60,30.05,10.0,NE,26.5,32.2,N/A,,Partly Cloudy,40,2013-01-23 01:54:00
4:54 PM,75.0,62.1,64,30.07,10.0,NE,23.0,31.1,N/A,,Partly Cloudy,40,2013-01-23 02:54:00
5:54 PM,73.0,61.0,66,30.08,10.0,NE,23.0,-,N/A,,Partly Cloudy,40,2013-01-23 03:54:00
6:54 PM,72.0,62.1,71,30.10,10.0,NE,21.9,27.6,N/A,,Clear,40,2013-01-23 04:54:00
7:54 PM,71.1,60.1,68,30.11,10.0,NE,5.8,-,N/A,,Scattered Clouds,50,2013-01-23 05:54:00
8:54 PM,72.0,60.1,66,30.11,10.0,NE,12.7,-,N/A,,Mostly Cloudy,40,2013-01-23 06:54:00
9:54 PM,71.1,57.9,63,30.10,10.0,NE,17.3,24.2,N/A,,Scattered Clouds,50,2013-01-23 07:54:00
10:54 PM,70.0,55.9,61,30.10,10.0,NE,18.4,21.9,N/A,,Clear,40,2013-01-23 08:54:00
11:54 PM,71.1,59.0,66,30.08,10.0,NNE,16.1,23.0,N/A,,Scattered Clouds,30,2013-01-23 09:54:00